sat.trackr.live / text

‹ back to catalog

STARLINK-36998

NORAD 68286 · 2026-055AA

PAYLOAD ACTIVE UNKNOWN

§ Identity

Operator
Country
US
Launch date
2026-03-19
Launch site
AFETR
Launch vehicle
Mass (kg)
RCS (m²)

Purposes: comms

External: N2YO · Heavens-Above · Gunter

§ Orbital elements

Epoch: 2026-05-24T19:38:58.118208Z

Period
93.85 min
Inclination
53.1614°
Eccentricity
0.0000732
Mean motion
15.34404576 rev/d
Perigee alt
462.2 km
Apogee alt
463.2 km
Semi-major
6,840.8 km
B*
7.2959e-4
RAAN
324.4256°
Arg perigee
106.0062°
Mean anomaly
254.1021°
Rev number
1,161

§ Raw data

STARLINK-369981 68286U 26055AA  26144.81872822  .00024358  00000+0  72959-3 0  99992 68286  53.1614 324.4256 0000732 106.0062 254.1021 15.34404576 11618

JSON: /api/v1/satellites/68286 · /tle

For live sub-satellite position, see the globe view (requires WebGL).

§ Visibility from observer

Set your observer location to see the next 7 days of passes ≥ 10°. The values pass through the URL so the page stays shareable.

No JS? Fill the form by hand. The geolocation button needs JavaScript.